Location: Guferjoch
(46.7462°N, 8.4506°E)
Time: 00:24:52
(UTC+00:00)

Cosmos 2369 - Pass Details

Date: 14 July 2020
Orbit: 839 x 857 km, 71.0° (Epoch: 03 August)

Event Time Altitude Azimuth Distance (km) Brightness Sun altitude
Rises 01:39:23 0° 332° (NNW) 3,435 7.3 -15.8°
Reaches altitude 10° 01:41:51 10° 331° (NNW) 2,497 6.5 -15.6°
Maximum altitude 01:47:35 78° 246° (WSW) 881 3.7 -15.1°
Drops below altitude 10° 01:53:17 10° 161° (SSE) 2,483 5.8 -14.6°
Enters shadow 01:54:55 - 160° (SSE) 3,099 6.3 -14.4°
